Location: Unspecified
(0.0000°N, 0.0000°E)
Time: 06:54:24
(UTC+01:00)

Milstar 3 - Visible Passes

Search period start: 07 February 2016 00:00
Search period end: 17 February 2016 00:00
Orbit: 1095 x 5150 km, 28.2° (Epoch: 28 January)

Date Brightness Start Highest point End Pass type
(mag) Time Alt. Az. Time Alt. Az. Time Alt. Az.
07 Feb 6.6 00:26:32 10° NW 00:28:47 12° NW 00:28:47 12° NW visible
07 Feb 2.7 06:09:32 21° WNW 06:14:27 82° SSW 06:21:27 10° ESE visible
07 Feb 6.0 20:06:21 10° W 20:37:42 51° NNW 20:57:24 18° NE visible
07 Feb 6.2 23:15:20 10° WNW 23:31:00 24° NNW 23:31:00 24° NNW visible
08 Feb 3.0 05:11:49 54° NNW 05:13:01 62° NNE 05:19:32 10° ESE visible
08 Feb 6.3 18:59:09 10° WSW 19:30:32 63° NNW 19:57:30 10° NE visible
08 Feb 5.9 22:03:16 10° WNW 22:28:11 31° NNW 22:33:11 29° N visible
09 Feb 4.3 04:14:07 29° ENE 04:14:07 29° ENE 04:17:33 10° E visible
09 Feb 6.0 20:52:15 10° W 21:21:23 39° NNW 21:35:22 24° NNE visible
10 Feb 6.4 00:02:46 10° NW 00:08:57 16° NW 00:08:57 16° NW visible
10 Feb 2.8 05:49:59 33° WNW 05:53:23 68° SSW 06:00:03 10° SE visible
10 Feb 6.2 19:43:17 10° W 20:14:02 49° NNW 20:37:33 12° NE visible
10 Feb 6.1 22:51:42 10° WNW 23:11:07 26° NNW 23:11:07 26° NNW visible
11 Feb 2.9 04:52:16 74° ENE 04:52:16 74° ENE 04:58:30 10° ESE visible
11 Feb 6.0 21:39:52 10° WNW 22:05:47 31° NNW 22:13:17 27° N visible
12 Feb 4.7 03:54:33 23° E 03:54:33 23° E 03:56:51 10° E visible
12 Feb 3.7 06:28:09 12° W 06:33:46 33° SSW 06:39:55 10° SE visible
12 Feb 6.1 20:29:09 10° W 20:58:19 38° NNW 21:15:25 19° NNE visible
12 Feb 6.3 23:38:48 10° NW 23:49:01 21° NNW 23:49:01 21° NNW visible
13 Feb 3.0 05:30:26 45° WSW 05:32:15 56° SSW 05:38:43 10° SE visible
13 Feb 6.4 19:20:30 10° W 19:50:23 47° NNW 20:16:16 10° NE visible
13 Feb 6.0 22:27:59 10° WNW 22:50:36 28° N 22:51:08 28° N visible
14 Feb 3.5 04:32:42 54° ESE 04:32:42 54° ESE 04:37:29 10° ESE visible
14 Feb 6.0 21:16:34 10° WNW 21:43:21 32° NNW 21:53:16 25° NNE visible
15 Feb 6.6 00:23:28 10° NW 00:26:51 14° NW 00:26:51 14° NW visible
15 Feb 5.2 03:34:58 16° ESE 03:34:58 16° ESE 03:36:05 10° ESE visible
15 Feb 3.9 06:08:33 17° WSW 06:12:38 28° SSW 06:18:17 10° SSE visible
15 Feb 6.2 20:06:17 10° W 20:35:15 37° NNW 20:55:23 15° NE visible
15 Feb 6.2 23:14:40 10° NW 23:28:58 25° NNW 23:28:58 25° NNW visible
16 Feb 3.3 05:10:49 47° SW 05:11:03 48° SSW 05:17:26 10° SE visible
16 Feb 6.4 18:58:01 10° W 19:26:48 45° NNW 19:53:53 10° NE visible
16 Feb 6.0 22:04:14 10° WNW 22:28:37 29° N 22:31:04 29° N visible
